FW5178 Weather Reports


time (UTC)temp
C
wind
direction
speed
KPH
gust
KPH
rain 1hr
cm
rain 24hr
cm
rain mn
cm
humidity
%
barometer
mb
20260505181530 17 334 9.7 24.1 0.00 0.00 0.00 66 1016.3
20260505180031 17 332 11.3 29.0 0.00 0.00 0.00 67 1016.2
20260505174530 17 335 8.0 22.5 0.00 0.00 0.00 68 1016.3
20260505171533 16 330 9.7 24.1 0.00 0.00 0.00 70 1016.1
20260505170033 16 338 8.0 20.9 0.00 0.00 0.00 72 1016.1
20260505164530 16 336 11.3 29.0 0.00 0.00 0.00 73 1016.1
20260505163030 15 335 9.7 24.1 0.00 0.00 0.00 74 1016.0
20260505161530 15 338 9.7 22.5 0.00 0.00 0.00 75 1016.0
20260505153029 13 352 8.0 22.5 0.00 0.00 0.00 80 1015.8
20260505151531 13 355 8.0 17.7 0.00 0.00 0.00 83 1015.8
20260505124530 11 2 9.7 19.3 0.00 0.00 0.00 85 1014.6
20260505123144 12 360 9.7 19.3 0.00 0.00 0.00 85 1014.6
20260505121529 12 1 11.3 19.3 0.00 0.00 0.00 85 1014.5
20260505114528 12 7 9.7 16.1 0.00 0.00 0.00 85 1014.3
20260505113107 12 7 9.7 20.9 0.00 0.00 0.00 85 1014.3
20260505111531 12 7 9.7 17.7 0.00 0.00 0.00 85 1014.2
20260505100031 12 6 9.7 17.7 0.00 0.00 0.00 82 1013.8
20260505094526 13 11 8.0 16.1 0.00 0.00 0.00 81 1013.7
20260505091530 13 4 9.7 20.9 0.00 0.00 0.00 81 1013.5
20260505084533 13 7 8.0 16.1 0.00 0.00 0.00 81 1013.2
20260505083029 13 8 8.0 14.5 0.00 0.00 0.00 82 1013.2
20260505081533 14 5 6.4 11.3 0.00 0.00 0.00 81 1013.1
20260505080028 13 18 6.4 12.9 0.00 0.00 0.00 80 1013.0
20260505074606 14 21 4.8 8.0 0.00 0.00 0.00 79 1012.9
20260505071532 15 360 4.8 8.0 0.00 0.00 0.00 72 1012.7
20260505070032 16 228 0.0 8.0 0.00 0.00 0.00 69 1012.6
20260505064532 17 227 8.0 16.1 0.00 0.00 0.00 68 1012.5
20260505063028 17 228 8.0 14.5 0.00 0.00 0.00 67 1012.4
20260505061526 17 232 6.4 14.5 0.00 0.00 0.00 65 1012.4
20260505060030 17 223 9.7 19.3 0.00 0.00 0.00 64 1012.4
20260505054530 17 215 11.3 24.1 0.00 0.00 0.00 63 1012.4
20260505051534 18 221 9.7 19.3 0.00 0.00 0.00 61 1012.2
20260505040040 17 184 3.2 9.7 0.00 0.00 0.00 61 1011.3
20260505033104 18 231 0.0 6.4 0.00 0.00 0.00 57 1010.9
20260505023107 22 317 9.7 25.7 0.00 0.00 0.00 52 1010.2
20260505021531 22 315 12.9 29.0 0.00 0.00 0.00 52 1010.2
20260505020030 22 318 8.0 19.3 0.00 0.00 0.00 51 1010.2
20260505014532 23 319 11.3 24.1 0.00 0.00 0.00 50 1010.2
20260505013030 23 310 12.9 25.7 0.00 0.00 0.00 50 1010.1
20260505010033 23 322 11.3 24.1 0.00 0.00 0.00 49 1010.1
20260505004646 24 331 11.3 29.0 0.00 0.00 0.00 49 1010.1
20260505001531 24 323 11.3 25.7 0.00 0.00 0.00 48 1010.1
20260505000107 25 308 12.9 32.2 0.00 0.00 0.00 47 1010.0
20260504234528 25 321 11.3 25.7 0.00 0.00 0.00 47 1010.0
20260504233106 25 315 9.7 22.5 0.00 0.00 0.00 46 1010.0
20260504231530 25 355 6.4 16.1 0.00 0.00 0.00 47 1010.0
20260504230031 25 351 6.4 14.5 0.00 0.00 0.00 47 1010.2
20260504224531 25 339 8.0 22.5 0.00 0.00 0.00 47 1010.3
20260504223030 25 348 6.4 16.1 0.00 0.00 0.00 46 1010.5
20260504221531 25 340 4.8 17.7 0.00 0.00 0.00 47 1010.6
20260504220104 25 6 9.7 19.3 0.00 0.00 0.00 47 1010.6
20260504214535 25 13 9.7 17.7 0.00 0.00 0.00 47 1010.8
20260504213030 25 21 9.7 19.3 0.00 0.00 0.00 47 1010.9
20260504211532 25 346 8.0 19.3 0.00 0.00 0.00 46 1011.1
20260504210026 24 5 9.7 19.3 0.00 0.00 0.00 47 1011.3
20260504204540 24 338 9.7 22.5 0.00 0.00 0.00 47 1011.4
20260504203032 24 356 9.7 19.3 0.00 0.00 0.00 47 1011.5
20260504201529 23 10 11.3 22.5 0.00 0.00 0.00 48 1011.6
20260504200105 23 5 12.9 24.1 0.00 0.00 0.00 49 1011.8
20260504194530 23 5 11.3 19.3 0.00 0.00 0.00 50 1011.8
20260504193030 23 9 12.9 22.5 0.00 0.00 0.00 50 1011.9
20260504184605 22 6 12.9 22.5 0.00 0.00 0.00 53 1012.1
20260504183031 21 13 11.3 20.9 0.00 0.00 0.00 55 1012.1